Ozark, AL

11:38 PM CDT on May 26, 2018 (GMT -0500)
Cairns Army Air Field

Weather History for KOZR - May, 2014

Change the Weather History Date:

Tuesday, May 13, 2014

  Actual Average Record
Temperature  
Mean Temperature 76 °F -  
Max Temperature 88 °F 82 °F 96 °F (2000)
Min Temperature 64 °F 59 °F 49 °F (2013)
Cooling Degree Days 11    
Growing Degree Days 26 (Base 50)    
Moisture  
Dew Point 65 °F    
Average Humidity 70    
Maximum Humidity 98    
Minimum Humidity 41    
Precipitation  
Precipitation 0.00 in - - ()
Sea Level Pressure  
Sea Level Pressure 30.08 in    
Wind  
Wind Speed 3 mph (ESE)    
Max Wind Speed 7 mph    
Max Gust Speed -    
Visibility 10 miles    
Events      
Averages and records for this station are not official NWS values.
T = Trace of Precipitation, MM = Missing Value Source: NWS Daily Summary

Daily Weather History Graph

Daily Weather History Graph

Search for Another Location

Airport or City:

Astronomy

May. 13, 2014 Rise Set
Actual Time 5:48 AM CDT 7:30 PM CDT
Civil Twilight 5:21 AM CDT 7:56 PM CDT
Nautical Twilight 4:50 AM CDT 8:28 PM CDT
Astronomical Twilight 4:16 AM CDT 9:02 PM CDT
Moon 6:35 PM CDT (5/13) 4:58 AM CDT (5/13)
Length of Visible Light 14h 35m
Length of Day
13h 42m
Waxing Gibbous, 99% of the Moon is Illuminated
May 13
Waxing Gibbous
May 14
Full
May 21
Last Quarter
May 28
New
Jun 5
First Quarter

Hourly Weather History & Observations

Time (CDT) Temp. Heat Index Dew Point Humidity Pressure Visibility Wind Dir Wind Speed Gust Speed Precip Events Conditions
12:58 AM 66.7 °F - 65.3 °F 95% 30.08 in 10.0 mi Calm Calm - N/A   Clear
1:58 AM 65.7 °F - 64.2 °F 95% 30.08 in 10.0 mi Calm Calm - N/A   Clear
2:58 AM 64.6 °F - 63.1 °F 95% 30.07 in 10.0 mi Calm Calm - N/A   Clear
3:58 AM 64.8 °F - 63.5 °F 96% 30.08 in 10.0 mi NE 4.6 mph - N/A   Clear
4:58 AM 64.8 °F - 63.7 °F 96% 30.09 in 10.0 mi NE 3.5 mph - N/A   Clear
5:58 AM 64.2 °F - 63.5 °F 98% 30.10 in 10.0 mi NE 5.8 mph - N/A   Clear
6:58 AM 66.7 °F - 65.7 °F 96% 30.12 in 10.0 mi NE 4.6 mph - N/A   Clear
8:58 AM 77.0 °F - 69.6 °F 78% 30.13 in 10.0 mi SE 6.9 mph - N/A   Clear
9:58 AM 80.4 °F 83.4 °F 68.9 °F 68% 30.13 in 10.0 mi SE 5.8 mph - N/A   Clear
10:58 AM 81.3 °F 83.8 °F 67.1 °F 62% 30.13 in 10.0 mi South 6.9 mph - N/A   Mostly Cloudy
11:03 AM 82.4 °F 85.4 °F 68.0 °F 62% 30.13 in 10.0 mi South 5.8 mph - N/A   Mostly Cloudy
11:58 AM 84.7 °F 87.4 °F 66.7 °F 55% 30.13 in 10.0 mi Variable 2.3 mph - N/A   Partly Cloudy
12:58 PM 85.5 °F 87.6 °F 65.8 °F 52% 30.11 in 10.0 mi Variable 5.8 mph - N/A   Scattered Clouds
1:58 PM 85.8 °F 87.1 °F 64.2 °F 48% 30.09 in 10.0 mi Variable 5.8 mph - N/A   Scattered Clouds
2:58 PM 87.8 °F 88.8 °F 63.3 °F 44% 30.07 in 10.0 mi Variable 2.3 mph - N/A   Partly Cloudy
3:58 PM 88.2 °F 89.0 °F 63.0 °F 43% 30.05 in 10.0 mi SE 5.8 mph - N/A   Clear
4:58 PM 88.2 °F 88.4 °F 61.7 °F 41% 30.04 in 10.0 mi East 5.8 mph - N/A   Clear
5:58 PM 86.7 °F 87.8 °F 63.5 °F 46% 30.03 in 10.0 mi SE 5.8 mph - N/A   Clear
6:58 PM 84.0 °F 85.4 °F 64.2 °F 51% 30.03 in 10.0 mi East 2.3 mph - N/A   Clear
7:58 PM 79.9 °F - 64.6 °F 59% 30.04 in 10.0 mi Variable 2.3 mph - N/A   Clear
8:58 PM 77.7 °F - 65.5 °F 66% 30.06 in 10.0 mi East 2.3 mph - N/A   Clear
9:58 PM 75.6 °F - 66.2 °F 73% 30.08 in 10.0 mi South 3.5 mph - N/A   Clear
10:58 PM 74.1 °F - 67.6 °F 80% 30.08 in 10.0 mi Variable 1.2 mph - N/A   Clear
11:58 PM 71.1 °F - 67.5 °F 88% 30.07 in 10.0 mi WSW 2.3 mph - N/A   Clear